カタログに戻る

SL-16 DEB

運用中LEO
NORAD 39907·DEBRIS·🇷🇺 Russia

打ち上げ Mar 26, 1993 から Baikonur Cosmodrome

Loading…

次のパス (今後24時間)

TLE

最新Source: Space-Track

元期: Sep 13, 2026, 19:01 UTC

1 39907U 93016CH  26256.79251813  .00000204  00000-0  18891-3 0  9990
2 39907  70.9911 278.6003 0128337  35.3347 325.6183 13.89822509624076

AllMySatでSL-16 DEBをリアルタイム追跡

Download on the App Store